DIRECTV 14 (40333 NORAD) Tracking and Keplerian Element Data

This shows tracking and keplerian element data for the satellite.

Feedback or suggestion? Click here.




ElementValue
Catalog40333
NameDIRECTV 14
Epoch Orbit1476
Epoch Day349.19696059
Epoch Year2018
RAAN296.2169
Inclination0.0239
Eccentricity6.6E-05
Argument of Perigee204.1765
Mean Anonmoly275.1001
Mean Motion1.00271742
Decay Rate-1.14E-06
L11 40333U 14078B 18349.19696059 -.00000114 00000-0 00000+0 0 9999
L22 40333 0.0239 296.2169 0000660 204.1765 275.1001 1.00271742 14769

Live tracking and technical data element details for DIRECTV 14 (NORAD 40333). DIRECTV 14 can be tracked NOW for your location showing map with azimuth and elevation plus other details from your city location.

Track the satellite on the map from your city or location and see movement details for azimuth, elevation, latitude, longitude, range, height, and movement on the map or in text.







IsCatalogInMostPopularTable: catalog: 40333, numindb: 99
Update: records affected: 1



GetName: 40333 DIRECTV 14

Hit Count: updated at: Sun, 16 Dec 2018 11:20:37 GMT